Regional Weather Roundup
Issued by NWS Memphis, TN

Home | Current Version | Previous Version | Text Only | Print | Product List | Glossary On
Versions: 1 2 3 4 5 6 7 8 9 10 11 12 13 14 15 16 17 18 19 20 21 22 23 24 25 26 27 28 29 30 31 32 33 34 35 36 37 38 39 40 41 42 43 44 45 46 47 48 49 50
000
ASUS44 KMEG 231110
RWRMEG
MEMPHIS CWA HOURLY WEATHER ROUNDUP
NATIONAL WEATHER SERVICE MEMPHIS TN
600 AM CDT SUN JUL 23 2017

...WEST TENNESSEE...

CITY           SKY/WX    TMP DP  RH WIND       PRES   REMARKS
MEMPHIS INTL   PTCLDY    76  74  93 SW7       29.91S
NWS MEMPHIS      N/A     77 N/A N/A MISG        N/A
JACKSON        CLEAR     76  74  93 SW6       29.90R
COVINGTON      CLEAR     77  73  88 SW5       29.89R
SOMERVILLE       N/A     75  73  94 S8        29.90S
BOLIVAR        CLEAR     75  72  88 S3        29.91R
LEXINGTON      CLEAR     73  72  94 CALM      29.90S
SELMER         CLEAR     73  72  94 W6        29.92R
SAVANNAH       PTCLDY    75  72  88 SE5       29.91S
UNION CITY     CLEAR     77  75  94 W5        29.88R
PARIS          CLEAR     75  73  94 SW7       29.88R
HUNTINGDON     CLEAR     77  73  88 SW5       29.88R


...EASTERN ARKANSAS...

CITY           SKY/WX    TMP DP  RH WIND       PRES   REMARKS
JONESBORO      PTCLDY    79  77  94 W8        29.88R
WEST MEMPHIS   CLEAR     76  75  97 S7        29.89S
BATESVILLE     PTCLDY    77  73  88 W6        29.90R
WALNUT RIDGE   PTCLDY    79  73  83 S7        29.88S
BLYTHEVILLE    CLEAR     79  75  87 SW6       29.89R
SEARCY         CLEAR     76  76 100 CALM      29.91R FOG
STUTTGART      CLEAR     75  63  64 S8        29.92S
PINE BLUFF     CLEAR     74  72  93 SW3       29.91S
MONTICELLO     PTCLDY    75  72  90 SW5       29.93R


...NORTH MISSISSIPPI...

CITY           SKY/WX    TMP DP  RH WIND       PRES   REMARKS
TUPELO         CLEAR     75  72  90 CALM      29.94R
OXFORD         CLEAR     72  72 100 SW6       29.96S
BATESVILLE     CLOUDY    74  72  94 SW3       29.95R
TUNICA           N/A     73  72  94 S5        29.93R FOG
CLARKSDALE       N/A     75  75 100 S5        29.93S
CORINTH        CLEAR     72  70  94 SE5       29.92
GREENWOOD      CLOUDY    74  73  97 SW5       29.96R
STARKVILLE     CLEAR     72  70  94 CALM      29.98R FOG
GOLDEN TRIANGL CLEAR     73  66  78 SW5       29.93R FOG


...SOUTHEAST MISSOURI...

CITY           SKY/WX    TMP DP  RH WIND       PRES   REMARKS
KENNETT        CLEAR     79  77  94 SW8       29.87R FOG
MALDEN         PTCLDY    81  73  78 SW6       29.88R
WEST PLAINS    CLOUDY    77  65  66 NE5       29.93S
POPLAR BLUFF   CLOUDY    78  76  93 W5        29.87R
CAPE GIRARDEAU MOCLDY    80  74  81 W8        29.86R


...NORTHWEST ALABAMA...

CITY           SKY/WX    TMP DP  RH WIND       PRES   REMARKS
MUSCLE SHOALS  CLEAR     74  71  91 CALM      29.95R


...MIDDLE TENNESSEE...

CITY           SKY/WX    TMP DP  RH WIND       PRES   REMARKS
NASHVILLE      PTCLDY    79  70  74 SW6       29.89F
CLARKSVILLE    CLEAR     77  73  87 SW8       29.87R
COLUMBIA       CLEAR     75  73  94 S5        29.90S


...WESTERN KENTUCKY...

CITY           SKY/WX    TMP DP  RH WIND       PRES   REMARKS
PADUCAH        CLOUDY    80  74  81 SW9       29.84R
FORT CAMPBELL  CLEAR     76  74  92 SW10      29.87R


...CENTRAL ARKANSAS...

CITY           SKY/WX    TMP DP  RH WIND       PRES   REMARKS
LITTLE ROCK    PTCLDY    75  75 100 SW6       29.90S


SKY/WX REPORTED AS FAIR MEANS FEW OR NO CLOUDS BELOW
12 THOUSAND FEET.





USA.gov is the U.S. government's official web portal to all federal, state and local government web resources and services.